FENGYUN 1C DEB

基本信息
目录编号:
35173
目录名称:
FENGYUN 1C DEB
国际标识:
1999-025DND
轨道中心:
EARTH
物体状态:
在轨
发射日期:
1999-05-10 UTC
轨道信息
数据来源: 国际轨道数据
星历时间: 2026-09-11T17:39:44+0800
半长轴: 7494.182km
偏心率: 0.0486135
轨道倾角: 99.772°
近地点辐角: 269.063°
升交点赤经: 321.483°
平近点角: 85.479°
近地点: 751.726km
远地点: 1480.364km
周期: 107.608分钟
每日圈数: 13.381859
详细信息
发射场:
TSC
轨道高度:
LEO
数据来源:
AOE Integration Group
参考系:
TEME
时间系统:
UTC
历元类型:
SGP4
2D轨道图
3D轨道图
轨道高度分析图
轨道倾角分析图
轨道综合分析图
查看轨道综合分析图